Theta_e
280 279 279 279 279 278 278 277 275 272 273 275 275 277 277 277 278 277 276 279 282 283 283 284 285 286 287 287 288 289 289 290 290 291 292 292 292 293
279 278 278 278 277 277 278 277 276 274 271 275 275 275 276 277 277 276 276 278 279 280 281 282 284 284 285 285 285 286 287 288 288 289 289 289 290 291
278 277 277 277 275 275 276 276 275 274 272 274 275 275 274 274 275 275 275 275 275 278 279 281 282 282 282 283 283 284 284 285 286 286 286 287 289 290
277 276 275 277 275 275 275 275 274 275 274 272 274 274 273 274 273 273 274 276 274 276 279 280 280 280 281 280 281 281 282 282 282 283 285 286 287 288
275 275 274 275 275 275 274 274 274 276 275 273 272 274 273 273 272 273 273 273 274 276 277 277 278 278 278 278 279 279 279 279 280 282 283 284 285 286
276 275 274 275 274 274 275 274 275 275 275 273 272 272 272 272 272 270 270 271 270 272 274 274 275 275 275 276 276 276 276 279 280 281 281 282 283 284
276 275 276 276 277 277 276 275 275 275 273 272 271 270 270 269 269 271 269 269 269 270 269 269 268 269 269 272 272 274 277 278 278 279 280 281 282 282
275 274 275 275 275 277 278 279 279 275 273 271 270 268 269 270 271 269 267 265 263 269 266 264 267 266 267 268 273 275 275 277 278 279 280 280 281 281
275 274 275 275 274 274 276 278 278 277 276 272 269 269 270 270 269 267 265 265 264 265 264 261 265 264 266 268 271 273 274 276 277 277 277 278 280 279
274 274 274 273 274 275 276 276 274 272 272 272 272 272 271 270 268 267 266 263 262 263 264 258 262 262 264 264 270 271 273 274 274 275 276 277 278 278
275 274 274 273 275 278 276 273 270 270 273 274 273 272 271 270 269 265 260 259 257 259 262 261 261 260 261 261 265 269 270 271 272 273 274 276 276 277
273 274 275 275 277 278 275 269 266 268 267 265 264 264 265 265 267 264 262 257 257 255 261 258 259 259 256 260 262 262 263 267 270 271 272 273 274 272
273 273 273 276 277 277 275 268 269 269 263 261 261 261 262 262 262 262 262 260 256 256 261 261 258 257 257 256 259 261 262 263 263 265 268 270 272 272
273 272 272 276 275 273 270 271 271 264 260 259 258 258 258 259 259 260 260 260 260 259 260 260 257 257 256 255 255 259 260 261 262 262 263 267 270 271
274 274 273 271 270 266 267 267 263 259 258 256 256 257 258 258 258 258 258 259 259 259 260 259 258 258 257 256 255 256 258 259 261 262 263 264 264 265
271 266 268 266 265 264 262 261 260 259 257 256 255 256 257 256 256 257 256 256 255 255 258 259 259 258 256 256 256 255 257 256 260 262 263 263 264 265
261 258 258 260 259 259 258 256 256 256 255 255 254 254 254 255 255 256 255 255 253 253 254 257 258 258 257 256 254 256 257 259 261 261 261 261 263 265
258 255 256 257 256 255 253 254 253 253 253 254 253 253 253 253 253 254 254 253 253 253 253 255 255 254 255 256 262 259 258 259 260 261 262 261 261 265
254 252 254 256 256 255 252 251 251 253 250 251 252 252 253 253 252 252 253 253 253 253 254 254 254 253 251 251 256 263 258 259 260 261 262 262 262 264
254 254 256 254 252 251 249 248 249 251 250 251 251 251 251 251 251 251 252 252 253 253 253 254 254 255 253 252 252 256 265 261 260 260 261 263 265 271
251 251 250 248 249 248 248 247 246 248 249 249 249 249 250 251 251 251 252 253 253 253 252 253 256 259 256 256 254 256 259 265 265 263 263 263 264 266
248 248 249 247 248 247 246 245 244 244 245 245 248 249 250 251 251 251 252 252 252 253 253 255 256 256 255 255 255 256 257 260 265 267 269 269 267 265
249 246 247 245 245 246 244 243 241 245 246 246 248 249 250 250 251 251 251 252 253 253 254 255 256 256 255 256 256 256 257 259 260 260 263 270 272 274
Wind_Speed
5 5 4 3 4 3 3 2 1 3 3 3 4 5 8 9 12 10 12 21 25 26 28 27 26 29 26 26 27 30 31 31 30 29 28 29 28 28
4 5 4 3 3 3 2 2 1 2 4 2 4 7 8 8 10 10 11 20 21 23 27 26 28 29 27 26 30 30 30 30 30 29 29 29 30 30
4 4 4 3 3 3 2 2 2 2 5 7 6 8 7 8 8 7 9 9 8 23 25 26 28 24 26 28 30 30 29 29 29 29 29 28 28 29
4 4 3 2 3 3 2 3 3 4 5 10 10 8 9 8 8 9 8 8 9 17 25 28 24 25 24 30 30 29 29 28 28 28 28 29 30 31
4 3 3 3 2 2 3 3 3 5 5 7 10 8 7 7 9 8 9 10 9 20 23 23 22 23 30 30 29 29 28 28 28 29 30 31 31 30
3 3 3 3 3 4 4 4 6 6 6 7 9 9 9 9 9 11 10 10 12 11 17 17 21 28 28 27 28 27 27 28 31 32 33 32 30 29
2 2 2 3 7 9 5 6 7 5 7 8 9 10 11 11 13 9 13 13 11 11 10 12 12 11 12 19 21 26 30 33 35 33 33 31 28 31
2 2 3 2 7 11 12 14 12 9 9 9 8 11 13 12 9 12 13 13 12 2 16 14 11 11 11 10 26 31 35 35 34 32 31 33 33 32
2 3 4 5 4 6 11 14 7 12 13 11 11 11 12 13 15 15 13 12 13 13 13 15 10 11 10 11 30 32 32 30 30 33 35 36 32 34
2 2 2 5 6 9 9 6 5 6 9 9 10 11 14 15 13 12 14 14 11 8 10 14 6 14 13 12 31 28 28 32 33 35 36 36 35 35
4 3 3 6 11 16 8 6 7 8 11 14 18 23 22 21 18 10 9 11 14 12 10 8 11 16 16 14 11 27 32 32 32 36 36 35 37 36
3 3 7 10 15 16 8 7 10 10 8 9 9 10 12 11 17 9 8 10 11 10 3 10 15 13 12 9 12 14 13 29 36 35 36 35 35 15
4 3 3 14 15 17 18 6 10 12 11 7 7 6 6 7 6 7 8 8 11 11 15 13 14 13 10 16 16 11 16 16 16 20 30 33 32 27
4 3 4 12 15 15 12 18 18 12 6 6 6 6 7 7 8 8 10 9 10 16 18 14 12 13 14 16 19 15 16 16 15 15 16 23 31 34
4 4 8 9 12 8 13 15 10 5 5 5 6 6 7 8 10 9 10 11 12 15 14 15 11 14 12 15 19 20 22 16 16 13 15 16 17 16
3 3 6 7 8 8 5 7 6 4 5 5 6 7 7 7 9 8 10 11 11 13 12 12 12 13 13 14 15 19 17 15 17 16 16 17 18 17
4 2 2 3 5 4 3 3 3 4 4 4 6 7 8 8 9 8 8 10 10 13 15 14 13 13 13 17 16 16 17 17 16 17 19 20 19 18
4 2 2 3 3 3 3 5 3 4 3 5 6 6 8 8 10 10 9 9 11 12 14 13 14 14 13 9 18 14 18 15 18 19 18 18 22 22
2 2 2 4 4 4 4 3 4 5 3 4 6 6 7 8 10 10 10 9 11 11 13 12 12 12 15 19 15 12 17 20 19 18 17 17 20 24
0 2 4 3 4 5 4 3 4 5 4 5 6 6 7 7 9 9 10 11 11 13 14 13 11 11 14 14 20 23 31 18 17 19 21 19 22 41
2 4 3 3 4 4 4 4 4 5 5 5 6 6 7 6 9 9 10 15 15 11 14 15 13 21 13 14 14 18 19 31 27 20 19 18 19 23
3 4 4 4 4 4 4 4 4 4 5 4 6 6 7 6 8 10 9 11 12 11 13 13 14 12 12 13 17 23 20 22 28 38 30 24 14 17
3 3 4 4 4 5 4 4 3 6 6 5 6 7 6 8 7 8 9 10 11 12 13 14 13 11 12 13 17 17 25 22 19 23 21 36 40 37
Wind_Direction
73 73 70 52 35 17 44 33 327 320 303 336 335 358 337 331 329 335 328 327 335 334 335 335 333 335 334 335 332 332 326 325 322 322 321 319 316 313
66 63 58 63 42 17 15 11 349 304 280 304 310 307 315 308 315 328 315 323 319 325 327 326 329 328 328 329 329 323 322 320 318 318 318 315 312 311
77 64 58 66 38 20 6 353 321 286 277 302 299 306 302 301 310 311 306 299 309 318 320 322 324 317 321 324 322 318 317 314 314 314 311 305 302 303
62 60 35 31 27 8 338 329 308 286 284 303 307 313 315 307 310 303 301 314 315 310 315 317 314 319 317 316 315 315 313 313 311 307 302 305 305 301
66 55 22 14 4 334 312 308 298 303 282 303 308 307 306 315 317 311 315 314 311 312 308 312 314 311 312 312 312 313 315 311 306 304 307 305 300 299
63 34 18 347 341 329 332 309 313 309 320 316 312 313 319 326 316 323 321 321 316 310 309 309 315 307 306 310 311 313 310 306 309 309 304 300 298 298
36 3 357 330 348 335 325 322 315 336 327 326 318 318 323 332 330 329 318 317 317 305 314 311 305 301 300 308 305 309 311 313 309 305 302 298 298 299
322 344 324 4 354 336 323 320 321 340 334 326 322 317 320 318 328 324 318 322 319 275 321 308 305 300 305 302 308 315 311 306 305 298 305 304 299 299
309 341 346 352 320 306 301 305 325 325 334 331 316 317 316 332 324 321 318 310 309 315 308 301 306 295 301 303 308 307 305 300 309 310 306 297 295 298
299 322 350 322 315 308 303 316 338 338 331 328 321 332 325 326 328 320 326 312 301 304 315 291 336 303 315 306 303 304 312 310 308 302 303 300 295 296
325 349 335 303 308 316 328 353 335 328 327 341 332 328 329 332 327 335 326 328 319 321 309 301 320 314 309 305 301 309 313 307 304 301 299 300 302 295
321 298 302 318 317 320 350 7 338 321 358 343 330 329 328 322 334 335 325 315 314 314 344 318 313 326 310 304 307 305 304 299 302 302 304 300 297 299
285 278 292 319 326 341 346 343 318 354 347 327 318 319 320 321 320 320 315 310 304 282 293 311 310 307 291 309 303 302 295 298 299 298 297 297 297 291
287 265 285 318 343 342 345 333 342 354 333 327 322 322 326 324 319 314 302 291 279 281 296 300 294 297 297 297 296 302 300 295 293 295 292 286 293 291
269 317 359 2 349 347 341 343 359 337 326 321 319 317 314 311 306 306 300 298 290 287 290 292 284 290 286 286 291 296 301 301 294 286 296 289 292 286
8 37 9 353 351 354 342 343 333 325 316 308 307 306 306 313 310 313 310 313 307 301 298 293 297 295 293 285 287 289 293 288 296 293 298 289 288 275
79 35 353 357 348 340 331 304 290 305 310 311 315 316 315 317 312 317 308 308 300 306 310 313 309 295 286 284 287 282 288 292 296 297 300 292 288 281
53 25 335 324 298 296 289 304 275 292 291 315 306 304 309 312 310 311 305 303 303 307 306 311 315 316 309 281 278 299 297 295 300 298 294 292 291 292
50 322 286 301 306 304 292 282 293 299 292 286 299 303 305 303 309 306 307 306 306 307 305 310 310 315 315 313 310 299 306 301 304 301 297 292 290 286
176 272 303 295 285 284 284 270 289 295 293 296 297 294 294 292 301 301 303 304 308 309 307 310 311 313 314 306 307 303 304 304 306 304 305 300 289 288
300 305 272 275 277 275 276 274 265 282 286 291 290 284 285 289 295 295 298 304 307 308 306 307 309 308 295 295 299 308 312 315 312 305 306 302 307 309
266 266 276 271 271 263 270 270 283 284 280 266 276 282 285 278 287 296 299 303 305 302 297 299 308 313 313 310 307 313 316 319 322 321 323 322 322 322
274 264 280 269 269 278 279 275 251 270 271 262 274 283 285 290 285 284 290 295 297 301 305 308 313 316 312 308 312 315 320 325 328 329 325 335 338 340